2022/12/20 00:00:00,37.0,-3.9
2022/12/20 00:10:00,36.8,-4.1
2022/12/20 00:20:00,36.7,-4.2
2022/12/20 00:30:00,36.6,-4.2
2022/12/20 00:40:00,36.4,-4.2
2022/12/20 00:50:00,36.4,-4.2
2022/12/20 01:00:00,36.3,-4.0
2022/12/20 01:10:00,36.2,-3.4
2022/12/20 01:20:00,36.1,-3.5
2022/12/20 01:30:00,36.0,-3.8
2022/12/20 01:40:00,36.0,-3.4
2022/12/20 01:50:00,36.1,-3.5
2022/12/20 02:00:00,36.0,-3.2
2022/12/20 02:10:00,35.9,-3.3
2022/12/20 02:20:00,35.9,-2.9
2022/12/20 02:30:00,36.0,-3.0
2022/12/20 02:40:00,36.2,-2.8
2022/12/20 02:50:00,36.2,-3.2
2022/12/20 03:00:00,36.1,-2.8
2022/12/20 03:10:00,36.2,-2.9
2022/12/20 03:20:00,36.1,-3.3
2022/12/20 03:30:00,36.0,-2.8
2022/12/20 03:40:00,36.3,-2.6
2022/12/20 03:50:00,36.4,-2.8
2022/12/20 04:00:00,36.4,-2.7
2022/12/20 04:10:00,36.6,-2.6
2022/12/20 04:20:00,36.4,-2.8
2022/12/20 04:30:00,36.3,-2.7
2022/12/20 04:40:00,36.3,-2.4
2022/12/20 04:50:00,36.3,-2.4
2022/12/20 05:00:00,36.3,-2.4
2022/12/20 05:10:00,36.1,-2.4
2022/12/20 05:20:00,36.0,-2.1
2022/12/20 05:30:00,36.3,-2.1
2022/12/20 05:40:00,36.5,-2.5
2022/12/20 05:50:00,36.6,-2.4
2022/12/20 06:00:00,36.5,-2.3
2022/12/20 06:10:00,36.4,-2.4
2022/12/20 06:20:00,36.3,-2.4
2022/12/20 06:30:00,36.2,-2.4
2022/12/20 06:40:00,36.1,-2.4
2022/12/20 06:50:00,36.1,-2.1
2022/12/20 07:00:00,36.2,-2.3
2022/12/20 07:10:00,36.2,-2.2
2022/12/20 07:20:00,36.2,-2.5
2022/12/20 07:30:00,36.3,-2.2
2022/12/20 07:40:00,36.3,-2.0
2022/12/20 07:50:00,36.3,-2.1
2022/12/20 08:00:00,36.2,-2.1
2022/12/20 08:10:00,36.1,-1.9
2022/12/20 08:20:00,36.0,-1.9
2022/12/20 08:30:00,35.9,-1.4
2022/12/20 08:40:00,35.8,-1.4
2022/12/20 08:50:00,35.7,-1.4
2022/12/20 09:00:00,35.6,-1.3
2022/12/20 09:10:00,35.5,-1.2
2022/12/20 09:20:00,35.5,-1.3
2022/12/20 09:30:00,35.4,-0.9
2022/12/20 09:40:00,35.4,-1.1
2022/12/20 09:50:00,35.4,-0.7
2022/12/20 10:00:00,35.3,-0.4
2022/12/20 10:10:00,35.2, 0.7
2022/12/20 10:20:00,35.2, 0.2
2022/12/20 10:30:00,35.2, 0.8
2022/12/20 10:40:00,35.1, 0.4
2022/12/20 10:50:00,35.0, 0.5
2022/12/20 11:00:00,34.9, 0.5
2022/12/20 11:10:00,34.8, 0.5
2022/12/20 11:20:00,34.7, 0.9
2022/12/20 11:30:00,34.6, 1.1
2022/12/20 11:40:00,34.5, 1.0
2022/12/20 11:50:00,34.3, 1.2
2022/12/20 12:00:00,34.2, 1.1
2022/12/20 12:10:00,34.0, 1.7
2022/12/20 12:20:00,33.9, 2.1
2022/12/20 12:30:00,33.8, 1.5
2022/12/20 12:40:00,33.7, 1.2
2022/12/20 12:50:00,33.7, 1.5
2022/12/20 13:00:00,33.7, 1.4
2022/12/20 13:10:00,33.7, 1.4
2022/12/20 13:20:00,33.6, 1.2
2022/12/20 13:30:00,33.5, 1.1
2022/12/20 13:40:00,33.3, 1.4
2022/12/20 13:50:00,33.2, 1.3
2022/12/20 14:00:00,33.1, 1.5
2022/12/20 14:10:00,33.0, 1.1
2022/12/20 14:20:00,32.9, 1.4
2022/12/20 14:30:00,32.8, 1.2
2022/12/20 14:40:00,32.7, 0.7
2022/12/20 14:50:00,32.6, 1.5
2022/12/20 15:00:00,32.5, 1.6
2022/12/20 15:10:00,32.4, 1.3
2022/12/20 15:20:00,32.3, 1.1
2022/12/20 15:30:00,32.3, 1.1
2022/12/20 15:40:00,32.3, 0.8
2022/12/20 15:50:00,32.3, 0.6
2022/12/20 16:00:00,32.2, 0.8
2022/12/20 16:10:00,32.2, 0.5
2022/12/20 16:20:00,32.2, 0.6
2022/12/20 16:30:00,32.1, 0.3
2022/12/20 16:40:00,32.0, 0.2
2022/12/20 16:50:00,32.0, 0.2
2022/12/20 17:00:00,31.9, 0.1
2022/12/20 17:10:00,31.8,-0.1
2022/12/20 17:20:00,31.7,-0.1
2022/12/20 17:30:00,31.7,-0.3
2022/12/20 17:40:00,31.6,-0.5
2022/12/20 17:50:00,31.6,-0.9
2022/12/20 18:00:00,31.5,-1.0
2022/12/20 18:10:00,31.5,-1.2
2022/12/20 18:20:00,31.5,-1.4
2022/12/20 18:30:00,31.5,-1.4
2022/12/20 18:40:00,31.5,-1.7
2022/12/20 18:50:00,31.5,-1.6
2022/12/20 19:00:00,31.5,-1.7
2022/12/20 19:10:00,31.4,-1.9
2022/12/20 19:20:00,31.4,-1.7
2022/12/20 19:30:00,31.3,-2.0
2022/12/20 19:40:00,31.3,-2.1
2022/12/20 19:50:00,31.2,-2.7
2022/12/20 20:00:00,31.2,-2.2
2022/12/20 20:10:00,31.2,-2.4
2022/12/20 20:20:00,31.1,-2.5
2022/12/20 20:30:00,31.1,-2.4
2022/12/20 20:40:00,31.1,-2.9
2022/12/20 20:50:00,31.0,-3.0
2022/12/20 21:00:00,31.0,-3.3
2022/12/20 21:10:00,31.0,-3.5
2022/12/20 21:20:00,30.9,-3.5
2022/12/20 21:30:00,30.9,-3.7
2022/12/20 21:40:00,30.8,-3.5
2022/12/20 21:50:00,30.8,-3.8
2022/12/20 22:00:00,30.8,-3.7
2022/12/20 22:10:00,30.7,-3.5
2022/12/20 22:20:00,30.7,-3.8
2022/12/20 22:30:00,30.6,-3.9
2022/12/20 22:40:00,30.6,-3.9
2022/12/20 22:50:00,30.5,-4.0
2022/12/20 23:00:00,30.5,-4.1
2022/12/20 23:10:00,30.5,-4.5
2022/12/20 23:20:00,30.4,-4.5
2022/12/20 23:30:00,30.4,-4.6
2022/12/20 23:40:00,30.3,-4.6
2022/12/20 23:50:00,30.3,-4.6
